Skip Page Navigation
NASA JPL Caltech
NASA Logo - Jet Propulsion Laboratory + View the NASA Portal
+ Center for Near-Earth Object Studies
JPL Home Earth Solar System Stars & Galaxies Technology
JPL Solar System Dynamics
BODIES ORBITS EPHEMERIDES TOOLS PHYSICAL DATA DISCOVERY FAQ SITE MAP
IMPORTANT: The SSD Announcement email list is now available. Major changes are coming in the near future, including possible hostname and/or URL changes. To be notified of such changes, subscribe to this email list.

Please visit this page for more details.


JPL Small-Body Database Browser
Search: [ help ]  
212519 (2006 RE40)
Classification: Main-belt Asteroid          SPK-ID: 2212519
Ephemeris | Orbit Diagram | Orbital Elements | Mission Design | Physical Parameters | Discovery Circumstances | Close-Approach Data ]

[ show orbit diagram ]
Orbital Elements at Epoch 2458600.5 (2019-Apr-27.0) TDB
Reference: JPL 16 (heliocentric ecliptic J2000)
 Element Value Uncertainty (1-sigma)   Units 
e .1253007356589218 4.8144e-08  
a 3.063759784368705 3.1812e-08 au
q 2.679868429505087 1.4754e-07 au
i 12.63358158000635 5.3557e-06 deg
node 166.7350894354015 2.3236e-05 deg
peri 227.61100663 3.0243e-05 deg
M 104.9613996062507 1.9768e-05 deg
tp 2458029.405988602606
(2017-Oct-02.90598860)
0.00010601 TDB
period 1958.756694121087
5.36
3.0508e-05
8.353e-08
d
yr
n .1837900547222051 2.8625e-09 deg/d
Q 3.447651139232323 3.5798e-08 au
  Orbit Determination Parameters
   # obs. used (total)      387  
   data-arc span      6349 days (17.38 yr)  
   first obs. used      2001-11-11  
   last obs. used      2019-03-31  
   planetary ephem.      DE431  
   SB-pert. ephem.      SB431-N16  
   condition code      0  
   norm. resid. RMS      .54047  
   source      ORB  
   producer      Otto Matic  
   solution date      2019-Jul-14 07:48:35  

Additional Information
 Earth MOID = 1.70174 au 
 Jupiter MOID = 2.06905 au 
 T_jup = 3.184 
[ show covariance matrix ]

Ephemeris | Orbit Diagram | Orbital Elements | Mission Design | Physical Parameters | Discovery Circumstances | Close-Approach Data ]

Physical Parameter Table
Parameter Symbol Value Units Sigma Reference Notes
absolute magnitude H 15.2   n/a MPO437020  

212519 (2006 RE40)          Discovered 2006-Sep-12 by CSS at Catalina
Reference: 20090409/Numbers.arcLast Updated: 2009-04-10

[ show close-approach data ]
Ephemeris | Orbit Diagram | Orbital Elements | Mission Design | Physical Parameters | Discovery Circumstances | Close-Approach Data ]
ABOUT SSD CREDITS/AWARDS PRIVACY/COPYRIGHT GLOSSARY LINKS
FirstGov
(server date/time)  
NASA Home Page
Site Manager:   Ryan S. Park
Webmaster  Alan B. Chamberlin